Location: Pagani
(40.7500°N, 14.6167°E)
Time: 07:59:55
(UTC+00:00)

NOSS 3-3 (C) - Pass Details

Date: 15 May 2026
Orbit: 697 x 1516 km, 63.4° (Epoch: 11 January)

Event Time Altitude Azimuth Distance (km) Brightness Sun altitude
Rises 18:37:55 0° 197° (SSW) 3,088 6.5 -5.2°
Reaches altitude 10° 18:40:11 10° 192° (SSW) 2,210 5.7 -5.5°
Maximum altitude 18:44:59 50° 117° (ESE) 994 3.7 -6.3°
Drops below altitude 10° 18:50:33 10° 43° (NE) 2,561 6.1 -7.2°
Sets 18:53:21 0° 39° (NE) 3,629 6.9 -7.6°
